Year,Month,Day,Hour,Minute,Value (Times are PST for temperature in C)
2010,06,22,00,00,9.40
2010,06,22,00,01,9.40
2010,06,22,00,02,9.40
2010,06,22,00,03,9.40
2010,06,22,00,04,9.40
2010,06,22,00,05,9.30
2010,06,22,00,06,9.30
2010,06,22,00,07,9.30
2010,06,22,00,08,9.30
2010,06,22,00,09,9.30
2010,06,22,00,10,9.30
2010,06,22,00,11,9.30
2010,06,22,00,12,9.20
2010,06,22,00,13,9.20
2010,06,22,00,14,9.20
2010,06,22,00,15,9.20
2010,06,22,00,16,9.20
2010,06,22,00,17,9.20
2010,06,22,00,18,9.20
2010,06,22,00,19,9.20
2010,06,22,00,20,9.20
2010,06,22,00,21,9.20
2010,06,22,00,22,9.10
2010,06,22,00,23,9.10
2010,06,22,00,24,9.10
2010,06,22,00,25,9.10
2010,06,22,00,26,9.10
2010,06,22,00,27,9.10
2010,06,22,00,28,9.10
2010,06,22,00,29,9.10
2010,06,22,00,30,9.10
2010,06,22,00,31,9.10
2010,06,22,00,32,9.10
2010,06,22,00,33,9.10
2010,06,22,00,34,9.10
2010,06,22,00,35,9.10
2010,06,22,00,36,9.10
2010,06,22,00,37,9.10
2010,06,22,00,38,9.10
2010,06,22,00,39,9.10
2010,06,22,00,40,9.10
2010,06,22,00,41,9.10
2010,06,22,00,42,9.10
2010,06,22,00,43,9.10
2010,06,22,00,44,9.10
2010,06,22,00,45,9.00
2010,06,22,00,46,9.00
2010,06,22,00,47,9.00
2010,06,22,00,48,9.00
2010,06,22,00,49,9.00
2010,06,22,00,50,9.00
2010,06,22,00,51,9.00
2010,06,22,00,52,9.00
2010,06,22,00,53,9.00
2010,06,22,00,54,9.00
2010,06,22,00,55,9.00
2010,06,22,00,56,9.00
2010,06,22,00,57,9.00
2010,06,22,00,58,9.00
2010,06,22,00,59,9.00
2010,06,22,01,00,9.00
2010,06,22,01,01,9.00
2010,06,22,01,02,9.00
2010,06,22,01,03,8.90
2010,06,22,01,04,8.90
2010,06,22,01,05,8.90
2010,06,22,01,06,8.90
2010,06,22,01,07,8.90
2010,06,22,01,08,8.90
2010,06,22,01,09,8.90
2010,06,22,01,10,8.90
2010,06,22,01,11,8.90
2010,06,22,01,12,8.80
2010,06,22,01,13,8.80
2010,06,22,01,14,8.80
2010,06,22,01,15,8.80
2010,06,22,01,16,8.80
2010,06,22,01,17,8.80
2010,06,22,01,18,8.80
2010,06,22,01,19,8.80
2010,06,22,01,20,8.80
2010,06,22,01,21,8.80
2010,06,22,01,22,8.80
2010,06,22,01,23,8.80
2010,06,22,01,24,8.70
2010,06,22,01,25,8.70
2010,06,22,01,26,8.70
2010,06,22,01,27,8.70
2010,06,22,01,28,8.70
2010,06,22,01,29,8.70
2010,06,22,01,30,8.70
2010,06,22,01,31,8.70
2010,06,22,01,32,8.70
2010,06,22,01,33,8.70
2010,06,22,01,34,8.70
2010,06,22,01,35,8.70
2010,06,22,01,36,8.70
2010,06,22,01,37,8.70
2010,06,22,01,38,8.70
2010,06,22,01,39,8.70
2010,06,22,01,40,8.70
2010,06,22,01,41,8.70
2010,06,22,01,42,8.60
2010,06,22,01,43,8.60
2010,06,22,01,44,8.60
2010,06,22,01,45,8.60
2010,06,22,01,46,8.60
2010,06,22,01,47,8.60
2010,06,22,01,48,8.60
2010,06,22,01,49,8.60
2010,06,22,01,50,8.60
2010,06,22,01,51,8.60
2010,06,22,01,52,8.60
2010,06,22,01,53,8.60
2010,06,22,01,54,8.50
2010,06,22,01,55,8.50
2010,06,22,01,56,8.50
2010,06,22,01,57,8.50
2010,06,22,01,58,8.50
2010,06,22,01,59,8.50
2010,06,22,02,00,8.50
2010,06,22,02,01,8.40
2010,06,22,02,02,8.40
2010,06,22,02,03,8.50
2010,06,22,02,04,8.40
2010,06,22,02,05,8.40
2010,06,22,02,06,8.40
2010,06,22,02,07,8.40
2010,06,22,02,08,8.40
2010,06,22,02,09,8.40
2010,06,22,02,10,8.40
2010,06,22,02,11,8.40
2010,06,22,02,12,8.40
2010,06,22,02,13,8.40
2010,06,22,02,14,8.40
2010,06,22,02,15,8.40
2010,06,22,02,16,8.40
2010,06,22,02,17,8.30
2010,06,22,02,18,8.30
2010,06,22,02,19,8.30
2010,06,22,02,20,8.30
2010,06,22,02,21,8.30
2010,06,22,02,22,8.30
2010,06,22,02,23,8.30
2010,06,22,02,24,8.30
2010,06,22,02,25,8.30
2010,06,22,02,26,8.20
2010,06,22,02,27,8.20
2010,06,22,02,28,8.20
2010,06,22,02,29,8.20
2010,06,22,02,30,8.20
2010,06,22,02,31,8.10
2010,06,22,02,32,8.10
2010,06,22,02,33,8.10
2010,06,22,02,34,8.10
2010,06,22,02,35,8.10
2010,06,22,02,36,8.00
2010,06,22,02,37,8.00
2010,06,22,02,38,8.00
2010,06,22,02,39,8.00
2010,06,22,02,40,8.00
2010,06,22,02,41,7.90
2010,06,22,02,42,7.90
2010,06,22,02,43,7.90
2010,06,22,02,44,7.90
2010,06,22,02,45,7.90
2010,06,22,02,46,7.90
2010,06,22,02,47,7.90
2010,06,22,02,48,7.80
2010,06,22,02,49,7.80
2010,06,22,02,50,7.80
2010,06,22,02,51,7.80
2010,06,22,02,52,7.80
2010,06,22,02,53,7.80
2010,06,22,02,54,7.80
2010,06,22,02,55,7.80
2010,06,22,02,56,7.80
2010,06,22,02,57,7.80
2010,06,22,02,58,7.90
2010,06,22,02,59,7.90
2010,06,22,03,00,7.90
2010,06,22,03,01,7.90
2010,06,22,03,02,7.90
2010,06,22,03,03,7.90
2010,06,22,03,04,7.90
2010,06,22,03,05,7.90
2010,06,22,03,06,7.90
2010,06,22,03,07,7.90
2010,06,22,03,08,7.90
2010,06,22,03,09,7.90
2010,06,22,03,10,7.90
2010,06,22,03,11,7.80
2010,06,22,03,12,7.80
2010,06,22,03,13,7.80
2010,06,22,03,14,7.80
2010,06,22,03,15,7.80
2010,06,22,03,16,7.80
2010,06,22,03,17,7.80
2010,06,22,03,18,7.80
2010,06,22,03,19,7.70
2010,06,22,03,20,7.70
2010,06,22,03,21,7.70
2010,06,22,03,22,7.70
2010,06,22,03,23,7.70
2010,06,22,03,24,7.70
2010,06,22,03,25,7.70
2010,06,22,03,26,7.60
2010,06,22,03,27,7.60
2010,06,22,03,28,7.60
2010,06,22,03,29,7.60
2010,06,22,03,30,7.60
2010,06,22,03,31,7.60
2010,06,22,03,32,7.60
2010,06,22,03,33,7.60
2010,06,22,03,34,7.60
2010,06,22,03,35,7.60
2010,06,22,03,36,7.60
2010,06,22,03,37,7.60
2010,06,22,03,38,7.50
2010,06,22,03,39,7.50
2010,06,22,03,40,7.50
2010,06,22,03,41,7.50
2010,06,22,03,42,7.50
2010,06,22,03,43,7.50
2010,06,22,03,44,7.50
2010,06,22,03,45,7.50
2010,06,22,03,46,7.50
2010,06,22,03,47,7.50
2010,06,22,03,48,7.50
2010,06,22,03,49,7.40
2010,06,22,03,50,7.40
2010,06,22,03,51,7.40
2010,06,22,03,52,7.40
2010,06,22,03,53,7.40
2010,06,22,03,54,7.40
2010,06,22,03,55,7.40
2010,06,22,03,56,7.40
2010,06,22,03,57,7.40
2010,06,22,03,58,7.40
2010,06,22,03,59,7.40
2010,06,22,04,00,7.40
2010,06,22,04,01,7.40
2010,06,22,04,02,7.40
2010,06,22,04,03,7.40
2010,06,22,04,04,7.40
2010,06,22,04,05,7.40
2010,06,22,04,06,7.40
2010,06,22,04,07,7.40
2010,06,22,04,08,7.40
2010,06,22,04,09,7.40
2010,06,22,04,10,7.40
2010,06,22,04,11,7.40
2010,06,22,04,12,7.40
2010,06,22,04,13,7.40
2010,06,22,04,14,7.40
2010,06,22,04,15,7.40
2010,06,22,04,16,7.40
2010,06,22,04,17,7.40
2010,06,22,04,18,7.40
2010,06,22,04,19,7.30
2010,06,22,04,20,7.30
2010,06,22,04,21,7.30
2010,06,22,04,22,7.30
2010,06,22,04,23,7.30
2010,06,22,04,24,7.30
2010,06,22,04,25,7.30
2010,06,22,04,26,7.30
2010,06,22,04,27,7.30
2010,06,22,04,28,7.30
2010,06,22,04,29,7.30
2010,06,22,04,30,7.30
2010,06,22,04,31,7.30
2010,06,22,04,32,7.20
2010,06,22,04,33,7.20
2010,06,22,04,34,7.20
2010,06,22,04,35,7.20
2010,06,22,04,36,7.20
2010,06,22,04,37,7.20
2010,06,22,04,38,7.20
2010,06,22,04,39,7.20
2010,06,22,04,40,7.20
2010,06,22,04,41,7.20
2010,06,22,04,42,7.20
2010,06,22,04,43,7.20
2010,06,22,04,44,7.20
2010,06,22,04,45,7.20
2010,06,22,04,46,7.20
2010,06,22,04,47,7.10
2010,06,22,04,48,7.10
2010,06,22,04,49,7.10
2010,06,22,04,50,7.10
2010,06,22,04,51,7.10
2010,06,22,04,52,7.10
2010,06,22,04,53,7.10
2010,06,22,04,54,7.00
2010,06,22,04,55,7.00
2010,06,22,04,56,7.00
2010,06,22,04,57,7.00
2010,06,22,04,58,7.00
2010,06,22,04,59,7.00
2010,06,22,05,00,7.00
2010,06,22,05,01,7.00
2010,06,22,05,02,7.00
2010,06,22,05,03,7.00
2010,06,22,05,04,7.00
2010,06,22,05,05,7.00
2010,06,22,05,06,7.00
2010,06,22,05,07,7.00
2010,06,22,05,08,7.00
2010,06,22,05,09,7.00
2010,06,22,05,10,7.00
2010,06,22,05,11,7.00
2010,06,22,05,12,7.00
2010,06,22,05,13,7.00
2010,06,22,05,14,7.00
2010,06,22,05,15,7.00
2010,06,22,05,16,7.00
2010,06,22,05,17,7.00
2010,06,22,05,18,7.00
2010,06,22,05,19,6.90
2010,06,22,05,20,6.90
2010,06,22,05,21,6.90
2010,06,22,05,22,6.90
2010,06,22,05,23,6.90
2010,06,22,05,24,6.90
2010,06,22,05,25,6.90
2010,06,22,05,26,6.90
2010,06,22,05,27,6.90
2010,06,22,05,28,6.90
2010,06,22,05,29,6.90
2010,06,22,05,30,6.90
2010,06,22,05,31,6.90
2010,06,22,05,32,6.90
2010,06,22,05,33,6.90
2010,06,22,05,34,6.90
2010,06,22,05,35,6.90
2010,06,22,05,36,6.90
2010,06,22,05,37,6.90
2010,06,22,05,38,6.90
2010,06,22,05,39,6.90
2010,06,22,05,40,6.90
2010,06,22,05,41,6.90
2010,06,22,05,42,6.90
2010,06,22,05,43,6.90
2010,06,22,05,44,6.90
2010,06,22,05,45,6.90
2010,06,22,05,46,6.90
2010,06,22,05,47,6.90
2010,06,22,05,48,6.90
2010,06,22,05,49,6.90
2010,06,22,05,50,6.90
2010,06,22,05,51,6.90
2010,06,22,05,52,6.90
2010,06,22,05,53,6.90
2010,06,22,05,54,6.90
2010,06,22,05,55,6.90
2010,06,22,05,56,6.90
2010,06,22,05,57,6.90
2010,06,22,05,58,6.90
2010,06,22,05,59,6.90
2010,06,22,06,00,6.90
2010,06,22,06,01,6.90
2010,06,22,06,02,6.90
2010,06,22,06,03,6.90
2010,06,22,06,04,7.00
2010,06,22,06,05,7.00
2010,06,22,06,06,7.00
2010,06,22,06,07,7.00
2010,06,22,06,08,7.00
2010,06,22,06,09,7.00
2010,06,22,06,10,7.00
2010,06,22,06,11,7.00
2010,06,22,06,12,7.10
2010,06,22,06,13,7.10
2010,06,22,06,14,7.10
2010,06,22,06,15,7.10
2010,06,22,06,16,7.10
2010,06,22,06,17,7.10
2010,06,22,06,18,7.10
2010,06,22,06,19,7.10
2010,06,22,06,20,7.10
2010,06,22,06,21,7.10
2010,06,22,06,22,7.10
2010,06,22,06,23,7.20
2010,06,22,06,24,7.20
2010,06,22,06,25,7.20
2010,06,22,06,26,7.20
2010,06,22,06,27,7.20
2010,06,22,06,28,7.20
2010,06,22,06,29,7.20
2010,06,22,06,30,7.20
2010,06,22,06,31,7.20
2010,06,22,06,32,7.20
2010,06,22,06,33,7.30
2010,06,22,06,34,7.30
2010,06,22,06,35,7.30
2010,06,22,06,36,7.30
2010,06,22,06,37,7.40
2010,06,22,06,38,7.40
2010,06,22,06,39,7.40
2010,06,22,06,40,7.40
2010,06,22,06,41,7.50
2010,06,22,06,42,7.50
2010,06,22,06,43,7.60
2010,06,22,06,44,7.60
2010,06,22,06,45,7.60
2010,06,22,06,46,7.60
2010,06,22,06,47,7.70
2010,06,22,06,48,7.70
2010,06,22,06,49,7.70
2010,06,22,06,50,7.70
2010,06,22,06,51,7.70
2010,06,22,06,52,7.70
2010,06,22,06,53,7.80
2010,06,22,06,54,7.80
2010,06,22,06,55,7.80
2010,06,22,06,56,7.90
2010,06,22,06,57,7.90
2010,06,22,06,58,8.00
2010,06,22,06,59,8.10
2010,06,22,07,00,8.10
2010,06,22,07,01,8.20
2010,06,22,07,02,8.20
2010,06,22,07,03,8.30
2010,06,22,07,04,8.30
2010,06,22,07,05,8.30
2010,06,22,07,06,8.40
2010,06,22,07,07,8.50
2010,06,22,07,08,8.50
2010,06,22,07,09,8.60
2010,06,22,07,10,8.60
2010,06,22,07,11,8.70
2010,06,22,07,12,8.70
2010,06,22,07,13,8.80
2010,06,22,07,14,8.80
2010,06,22,07,15,8.90
2010,06,22,07,16,9.00
2010,06,22,07,17,9.00
2010,06,22,07,18,9.10
2010,06,22,07,19,9.20
2010,06,22,07,20,9.30
2010,06,22,07,21,9.40
2010,06,22,07,22,9.50
2010,06,22,07,23,9.70
2010,06,22,07,24,9.80
2010,06,22,07,25,9.90
2010,06,22,07,26,10.10
2010,06,22,07,27,10.30
2010,06,22,07,28,10.50
2010,06,22,07,29,10.60
2010,06,22,07,30,10.70
2010,06,22,07,31,10.80
2010,06,22,07,32,10.90
2010,06,22,07,33,11.00
2010,06,22,07,34,11.20
2010,06,22,07,35,11.30
2010,06,22,07,36,11.30
2010,06,22,07,37,11.40
2010,06,22,07,38,11.50
2010,06,22,07,39,11.50
2010,06,22,07,40,11.60
2010,06,22,07,41,11.70
2010,06,22,07,42,11.70
2010,06,22,07,43,11.80
2010,06,22,07,44,11.80
2010,06,22,07,45,11.90
2010,06,22,07,46,12.00
2010,06,22,07,47,12.00
2010,06,22,07,48,12.10
2010,06,22,07,49,12.10
2010,06,22,07,50,12.20
2010,06,22,07,51,12.20
2010,06,22,07,52,12.30
2010,06,22,07,53,12.30
2010,06,22,07,54,12.30
2010,06,22,07,55,12.40
2010,06,22,07,56,12.40
2010,06,22,07,57,12.50
2010,06,22,07,58,12.50
2010,06,22,07,59,12.60
2010,06,22,08,00,12.60
2010,06,22,08,01,12.70
2010,06,22,08,02,12.70
2010,06,22,08,03,12.70
2010,06,22,08,04,12.80
2010,06,22,08,05,12.80
2010,06,22,08,06,12.90
2010,06,22,08,07,12.90
2010,06,22,08,08,13.00
2010,06,22,08,09,13.10
2010,06,22,08,10,13.10
2010,06,22,08,11,13.20
2010,06,22,08,12,13.20
2010,06,22,08,13,13.30
2010,06,22,08,14,13.40
2010,06,22,08,15,13.40
2010,06,22,08,16,13.50
2010,06,22,08,17,13.60
2010,06,22,08,18,13.60
2010,06,22,08,19,13.60
2010,06,22,08,20,13.70
2010,06,22,08,21,13.80
2010,06,22,08,22,13.80
2010,06,22,08,23,13.90
2010,06,22,08,24,13.90
2010,06,22,08,25,13.90
2010,06,22,08,26,13.90
2010,06,22,08,27,14.00
2010,06,22,08,28,14.10
2010,06,22,08,29,14.10
2010,06,22,08,30,14.20
2010,06,22,08,31,14.30
2010,06,22,08,32,14.30
2010,06,22,08,33,14.40
2010,06,22,08,34,14.50
2010,06,22,08,35,14.60
2010,06,22,08,36,14.60
2010,06,22,08,37,14.70
2010,06,22,08,38,14.70
2010,06,22,08,39,14.80
2010,06,22,08,40,14.80
2010,06,22,08,41,14.90
2010,06,22,08,42,14.90
2010,06,22,08,43,15.00
2010,06,22,08,44,15.00
2010,06,22,08,45,15.00
2010,06,22,08,46,15.00
2010,06,22,08,47,15.00
2010,06,22,08,48,15.00
2010,06,22,08,49,15.00
2010,06,22,08,50,15.00
2010,06,22,08,51,15.00
2010,06,22,08,52,15.00
2010,06,22,08,53,15.00
2010,06,22,08,54,15.00
2010,06,22,08,55,15.00
2010,06,22,08,56,15.00
2010,06,22,08,57,15.10
2010,06,22,08,58,15.20
2010,06,22,08,59,15.20
2010,06,22,09,00,15.20
2010,06,22,09,01,15.30
2010,06,22,09,02,15.30
2010,06,22,09,03,15.30
2010,06,22,09,04,15.30
2010,06,22,09,05,15.40
2010,06,22,09,06,15.40
2010,06,22,09,07,15.50
2010,06,22,09,08,15.60
2010,06,22,09,09,15.70
2010,06,22,09,10,15.70
2010,06,22,09,11,15.80
2010,06,22,09,12,15.80
2010,06,22,09,13,15.80
2010,06,22,09,14,15.80
2010,06,22,09,15,15.80
2010,06,22,09,16,15.80
2010,06,22,09,17,15.90
2010,06,22,09,18,16.00
2010,06,22,09,19,16.00
2010,06,22,09,20,16.10
2010,06,22,09,21,16.20
2010,06,22,09,22,16.20
2010,06,22,09,23,16.30
2010,06,22,09,24,16.40
2010,06,22,09,25,16.40
2010,06,22,09,26,16.40
2010,06,22,09,27,16.50
2010,06,22,09,28,16.50
2010,06,22,09,29,16.60
2010,06,22,09,30,16.60
2010,06,22,09,31,16.70
2010,06,22,09,32,16.80
2010,06,22,09,33,16.90
2010,06,22,09,34,16.90
2010,06,22,09,35,16.90
2010,06,22,09,36,16.90
2010,06,22,09,37,17.00
2010,06,22,09,38,17.00
2010,06,22,09,39,17.10
2010,06,22,09,40,17.20
2010,06,22,09,41,17.30
2010,06,22,09,42,17.30
2010,06,22,09,43,17.30
2010,06,22,09,44,17.30
2010,06,22,09,45,17.30
2010,06,22,09,46,17.30
2010,06,22,09,47,17.30
2010,06,22,09,48,17.30
2010,06,22,09,49,17.20
2010,06,22,09,50,17.30
2010,06,22,09,51,17.30
2010,06,22,09,52,17.30
2010,06,22,09,53,17.30
2010,06,22,09,54,17.30
2010,06,22,09,55,17.30
2010,06,22,09,56,17.30
2010,06,22,09,57,17.30
2010,06,22,09,58,17.30
2010,06,22,09,59,17.40
2010,06,22,10,00,17.50
2010,06,22,10,01,17.50
2010,06,22,10,02,17.50
2010,06,22,10,03,17.50
2010,06,22,10,04,17.40
2010,06,22,10,05,17.40
2010,06,22,10,06,17.40
2010,06,22,10,07,17.50
2010,06,22,10,08,17.60
2010,06,22,10,09,17.70
2010,06,22,10,10,17.80
2010,06,22,10,11,17.80
2010,06,22,10,12,17.80
2010,06,22,10,13,17.80
2010,06,22,10,14,17.80
2010,06,22,10,15,17.80
2010,06,22,10,16,17.90
2010,06,22,10,17,18.00
2010,06,22,10,18,18.10
2010,06,22,10,19,18.20
2010,06,22,10,20,18.20
2010,06,22,10,21,18.40
2010,06,22,10,22,18.50
2010,06,22,10,23,18.60
2010,06,22,10,24,18.70
2010,06,22,10,25,18.80
2010,06,22,10,26,18.70
2010,06,22,10,27,18.60
2010,06,22,10,28,18.50
2010,06,22,10,29,18.40
2010,06,22,10,30,18.30
2010,06,22,10,31,18.30
2010,06,22,10,32,18.20
2010,06,22,10,33,18.10
2010,06,22,10,34,18.10
2010,06,22,10,35,18.10
2010,06,22,10,36,18.10
2010,06,22,10,37,18.10
2010,06,22,10,38,18.10
2010,06,22,10,39,18.20
2010,06,22,10,40,18.30
2010,06,22,10,41,18.30
2010,06,22,10,42,18.30
2010,06,22,10,43,18.30
2010,06,22,10,44,18.20
2010,06,22,10,45,18.20
2010,06,22,10,46,18.20
2010,06,22,10,47,18.20
2010,06,22,10,48,18.30
2010,06,22,10,49,18.40
2010,06,22,10,50,18.40
2010,06,22,10,51,18.50
2010,06,22,10,52,18.50
2010,06,22,10,53,18.50
2010,06,22,10,54,18.50
2010,06,22,10,55,18.50
2010,06,22,10,56,18.60
2010,06,22,10,57,18.70
2010,06,22,10,58,18.80
2010,06,22,10,59,18.90
2010,06,22,11,00,18.90
2010,06,22,11,01,18.90
2010,06,22,11,02,18.90
2010,06,22,11,03,18.90
2010,06,22,11,04,19.00
2010,06,22,11,05,19.10
2010,06,22,11,06,19.10
2010,06,22,11,07,19.20
2010,06,22,11,08,19.30
2010,06,22,11,09,19.30
2010,06,22,11,10,19.30
2010,06,22,11,11,19.30
2010,06,22,11,12,19.30
2010,06,22,11,13,19.30
2010,06,22,11,14,19.40
2010,06,22,11,15,19.40
2010,06,22,11,16,19.40
2010,06,22,11,17,19.40
2010,06,22,11,18,19.40
2010,06,22,11,19,19.30
2010,06,22,11,20,19.30
2010,06,22,11,21,19.20
2010,06,22,11,22,19.20
2010,06,22,11,23,19.10
2010,06,22,11,24,19.00
2010,06,22,11,25,18.90
2010,06,22,11,26,18.90
2010,06,22,11,27,18.90
2010,06,22,11,28,18.90
2010,06,22,11,29,18.90
2010,06,22,11,30,18.90
2010,06,22,11,31,18.90
2010,06,22,11,32,18.90
2010,06,22,11,33,19.00
2010,06,22,11,34,19.00
2010,06,22,11,35,19.00
2010,06,22,11,36,19.10
2010,06,22,11,37,19.10
2010,06,22,11,38,19.20
2010,06,22,11,39,19.20
2010,06,22,11,40,19.20
2010,06,22,11,41,19.20
2010,06,22,11,42,19.30
2010,06,22,11,43,19.30
2010,06,22,11,44,19.30
2010,06,22,11,45,19.30
2010,06,22,11,46,19.20
2010,06,22,11,47,19.20
2010,06,22,11,48,19.20
2010,06,22,11,49,19.20
2010,06,22,11,50,19.30
2010,06,22,11,51,19.20
2010,06,22,11,52,19.20
2010,06,22,11,53,19.10
2010,06,22,11,54,19.10
2010,06,22,11,55,19.10
2010,06,22,11,56,19.10
2010,06,22,11,57,19.00
2010,06,22,11,58,19.00
2010,06,22,11,59,19.00
2010,06,22,12,00,19.10
2010,06,22,12,01,19.20
2010,06,22,12,02,19.20
2010,06,22,12,03,19.20
2010,06,22,12,04,19.20
2010,06,22,12,05,19.20
2010,06,22,12,06,19.30
2010,06,22,12,07,19.30
2010,06,22,12,08,19.30
2010,06,22,12,09,19.30
2010,06,22,12,10,19.30
2010,06,22,12,11,19.30
2010,06,22,12,12,19.30
2010,06,22,12,13,19.30
2010,06,22,12,14,19.30
2010,06,22,12,15,19.30
2010,06,22,12,16,19.30
2010,06,22,12,17,19.30
2010,06,22,12,18,19.30
2010,06,22,12,19,19.30
2010,06,22,12,20,19.30
2010,06,22,12,21,19.30
2010,06,22,12,22,19.30
2010,06,22,12,23,19.30
2010,06,22,12,24,19.30
2010,06,22,12,25,19.40
2010,06,22,12,26,19.30
2010,06,22,12,27,19.20
2010,06,22,12,28,19.20
2010,06,22,12,29,19.00
2010,06,22,12,30,18.90
2010,06,22,12,31,18.90
2010,06,22,12,32,18.90
2010,06,22,12,33,18.90
2010,06,22,12,34,19.00
2010,06,22,12,35,19.10
2010,06,22,12,36,19.20
2010,06,22,12,37,19.30
2010,06,22,12,38,19.20
2010,06,22,12,39,19.10
2010,06,22,12,40,19.00
2010,06,22,12,41,18.90
2010,06,22,12,42,18.90
2010,06,22,12,43,18.90
2010,06,22,12,44,19.00
2010,06,22,12,45,19.00
2010,06,22,12,46,19.00
2010,06,22,12,47,19.10
2010,06,22,12,48,19.20
2010,06,22,12,49,19.30
2010,06,22,12,50,19.40
2010,06,22,12,51,19.50
2010,06,22,12,52,19.70
2010,06,22,12,53,19.80
2010,06,22,12,54,19.90
2010,06,22,12,55,19.90
2010,06,22,12,56,19.90
2010,06,22,12,57,20.00
2010,06,22,12,58,20.00
2010,06,22,12,59,19.90
2010,06,22,13,00,19.90
2010,06,22,13,01,19.80
2010,06,22,13,02,19.70
2010,06,22,13,03,19.60
2010,06,22,13,04,19.50
2010,06,22,13,05,19.40
2010,06,22,13,06,19.40
2010,06,22,13,07,19.40
2010,06,22,13,08,19.50
2010,06,22,13,09,19.60
2010,06,22,13,10,19.60
2010,06,22,13,11,19.60
2010,06,22,13,12,19.60
2010,06,22,13,13,19.60
2010,06,22,13,14,19.60
2010,06,22,13,15,19.50
2010,06,22,13,16,19.40
2010,06,22,13,17,19.20
2010,06,22,13,18,19.20
2010,06,22,13,19,19.20
2010,06,22,13,20,19.20
2010,06,22,13,21,19.30
2010,06,22,13,22,19.30
2010,06,22,13,23,19.30
2010,06,22,13,24,19.40
2010,06,22,13,25,19.50
2010,06,22,13,26,19.60
2010,06,22,13,27,19.70
2010,06,22,13,28,19.70
2010,06,22,13,29,19.80
2010,06,22,13,30,19.70
2010,06,22,13,31,19.80
2010,06,22,13,32,19.70
2010,06,22,13,33,19.70
2010,06,22,13,34,19.60
2010,06,22,13,35,19.50
2010,06,22,13,36,19.40
2010,06,22,13,37,19.40
2010,06,22,13,38,19.40
2010,06,22,13,39,19.40
2010,06,22,13,40,19.30
2010,06,22,13,41,19.20
2010,06,22,13,42,19.20
2010,06,22,13,43,19.30
2010,06,22,13,44,19.30
2010,06,22,13,45,19.40
2010,06,22,13,46,19.50
2010,06,22,13,47,19.60
2010,06,22,13,48,19.70
2010,06,22,13,49,19.80
2010,06,22,13,50,19.90
2010,06,22,13,51,19.90
2010,06,22,13,52,19.90
2010,06,22,13,53,20.00
2010,06,22,13,54,20.00
2010,06,22,13,55,20.10
2010,06,22,13,56,20.20
2010,06,22,13,57,20.30
2010,06,22,13,58,20.30
2010,06,22,13,59,20.30
2010,06,22,14,00,20.30
2010,06,22,14,01,20.30
2010,06,22,14,02,20.20
2010,06,22,14,03,20.20
2010,06,22,14,04,20.00
2010,06,22,14,05,19.80
2010,06,22,14,06,19.70
2010,06,22,14,07,19.60
2010,06,22,14,08,19.60
2010,06,22,14,09,19.60
2010,06,22,14,10,19.60
2010,06,22,14,11,19.60
2010,06,22,14,12,19.60
2010,06,22,14,13,19.60
2010,06,22,14,14,19.60
2010,06,22,14,15,19.60
2010,06,22,14,16,19.70
2010,06,22,14,17,19.70
2010,06,22,14,18,19.60
2010,06,22,14,19,19.70
2010,06,22,14,20,19.80
2010,06,22,14,21,19.80
2010,06,22,14,22,19.80
2010,06,22,14,23,19.80
2010,06,22,14,24,19.90
2010,06,22,14,25,19.90
2010,06,22,14,26,19.90
2010,06,22,14,27,19.70
2010,06,22,14,28,19.60
2010,06,22,14,29,19.60
2010,06,22,14,30,19.50
2010,06,22,14,31,19.50
2010,06,22,14,32,19.50
2010,06,22,14,33,19.60
2010,06,22,14,34,19.60
2010,06,22,14,35,19.60
2010,06,22,14,36,19.60
2010,06,22,14,37,19.60
2010,06,22,14,38,19.60
2010,06,22,14,39,19.70
2010,06,22,14,40,19.70
2010,06,22,14,41,19.60
2010,06,22,14,42,19.60
2010,06,22,14,43,19.60
2010,06,22,14,44,19.70
2010,06,22,14,45,19.70
2010,06,22,14,46,19.80
2010,06,22,14,47,19.80
2010,06,22,14,48,19.90
2010,06,22,14,49,19.90
2010,06,22,14,50,19.90
2010,06,22,14,51,19.90
2010,06,22,14,52,20.00
2010,06,22,14,53,20.00
2010,06,22,14,54,20.00
2010,06,22,14,55,20.00
2010,06,22,14,56,20.00
2010,06,22,14,57,19.90
2010,06,22,14,58,19.80
2010,06,22,14,59,19.70
2010,06,22,15,00,19.70
2010,06,22,15,01,19.70
2010,06,22,15,02,19.70
2010,06,22,15,03,19.70
2010,06,22,15,04,19.70
2010,06,22,15,05,19.70
2010,06,22,15,06,19.80
2010,06,22,15,07,19.70
2010,06,22,15,08,19.60
2010,06,22,15,09,19.60
2010,06,22,15,10,19.60
2010,06,22,15,11,19.60
2010,06,22,15,12,19.70
2010,06,22,15,13,19.70
2010,06,22,15,14,19.70
2010,06,22,15,15,19.70
2010,06,22,15,16,19.80
2010,06,22,15,17,19.80
2010,06,22,15,18,19.80
2010,06,22,15,19,19.90
2010,06,22,15,20,20.00
2010,06,22,15,21,20.00
2010,06,22,15,22,20.10
2010,06,22,15,23,20.20
2010,06,22,15,24,20.30
2010,06,22,15,25,20.30
2010,06,22,15,26,20.30
2010,06,22,15,27,20.30
2010,06,22,15,28,20.30
2010,06,22,15,29,20.30
2010,06,22,15,30,20.40
2010,06,22,15,31,20.50
2010,06,22,15,32,20.50
2010,06,22,15,33,20.50
2010,06,22,15,34,20.50
2010,06,22,15,35,20.50
2010,06,22,15,36,20.50
2010,06,22,15,37,20.50
2010,06,22,15,38,20.40
2010,06,22,15,39,20.30
2010,06,22,15,40,20.30
2010,06,22,15,41,20.10
2010,06,22,15,42,20.00
2010,06,22,15,43,19.90
2010,06,22,15,44,19.90
2010,06,22,15,45,19.90
2010,06,22,15,46,19.90
2010,06,22,15,47,19.90
2010,06,22,15,48,19.90
2010,06,22,15,49,19.90
2010,06,22,15,50,20.00
2010,06,22,15,51,20.00
2010,06,22,15,52,20.10
2010,06,22,15,53,20.10
2010,06,22,15,54,20.20
2010,06,22,15,55,20.20
2010,06,22,15,56,20.30
2010,06,22,15,57,20.30
2010,06,22,15,58,20.30
2010,06,22,15,59,20.20
2010,06,22,16,00,20.20
2010,06,22,16,01,20.10
2010,06,22,16,02,20.10
2010,06,22,16,03,20.00
2010,06,22,16,04,20.00
2010,06,22,16,05,19.90
2010,06,22,16,06,19.90
2010,06,22,16,07,19.80
2010,06,22,16,08,19.80
2010,06,22,16,09,19.80
2010,06,22,16,10,19.90
2010,06,22,16,11,19.90
2010,06,22,16,12,20.00
2010,06,22,16,13,20.00
2010,06,22,16,14,20.00
2010,06,22,16,15,20.00
2010,06,22,16,16,19.90
2010,06,22,16,17,20.00
2010,06,22,16,18,20.00
2010,06,22,16,19,20.00
2010,06,22,16,20,20.10
2010,06,22,16,21,20.00
2010,06,22,16,22,20.00
2010,06,22,16,23,20.00
2010,06,22,16,24,19.90
2010,06,22,16,25,19.90
2010,06,22,16,26,19.90
2010,06,22,16,27,19.90
2010,06,22,16,28,19.90
2010,06,22,16,29,19.90
2010,06,22,16,30,19.90
2010,06,22,16,31,20.00
2010,06,22,16,32,20.00
2010,06,22,16,33,20.10
2010,06,22,16,34,20.10
2010,06,22,16,35,20.20
2010,06,22,16,36,20.20
2010,06,22,16,37,20.30
2010,06,22,16,38,20.30
2010,06,22,16,39,20.30
2010,06,22,16,40,20.40
2010,06,22,16,41,20.40
2010,06,22,16,42,20.40
2010,06,22,16,43,20.30
2010,06,22,16,44,20.30
2010,06,22,16,45,20.30
2010,06,22,16,46,20.20
2010,06,22,16,47,20.20
2010,06,22,16,48,20.10
2010,06,22,16,49,20.10
2010,06,22,16,50,20.00
2010,06,22,16,51,20.00
2010,06,22,16,52,20.00
2010,06,22,16,53,19.90
2010,06,22,16,54,19.90
2010,06,22,16,55,19.80
2010,06,22,16,56,19.80
2010,06,22,16,57,19.80
2010,06,22,16,58,19.80
2010,06,22,16,59,19.80
2010,06,22,17,00,19.80
2010,06,22,17,01,19.80
2010,06,22,17,02,19.80
2010,06,22,17,03,19.80
2010,06,22,17,04,19.80
2010,06,22,17,05,19.80
2010,06,22,17,06,19.80
2010,06,22,17,07,19.70
2010,06,22,17,08,19.70
2010,06,22,17,09,19.80
2010,06,22,17,10,19.80
2010,06,22,17,11,19.80
2010,06,22,17,12,19.80
2010,06,22,17,13,19.90
2010,06,22,17,14,19.80
2010,06,22,17,15,19.80
2010,06,22,17,16,19.80
2010,06,22,17,17,19.80
2010,06,22,17,18,19.90
2010,06,22,17,19,19.90
2010,06,22,17,20,19.90
2010,06,22,17,21,19.90
2010,06,22,17,22,19.90
2010,06,22,17,23,19.80
2010,06,22,17,24,19.80
2010,06,22,17,25,19.80
2010,06,22,17,26,19.80
2010,06,22,17,27,19.80
2010,06,22,17,28,19.80
2010,06,22,17,29,19.70
2010,06,22,17,30,19.80
2010,06,22,17,31,19.80
2010,06,22,17,32,19.70
2010,06,22,17,33,19.70
2010,06,22,17,34,19.70
2010,06,22,17,35,19.80
2010,06,22,17,36,19.80
2010,06,22,17,37,19.80
2010,06,22,17,38,19.80